DLH995 EDDK-LOWI

Flight info

Callsign DLH995
Flight time 0h 58m
Altitude 34000
Route KUMIK1R/31R KUMIK Y854 BOMBI DCT GIGET DCT ABUKA/N0454F350 DCT UTABA M738 MADEB MADEB1B
Aircraft A320/M-SDE3FGHIRWY/LB1

Departure

Time 2026-05-06 19:20
Airport Cologne Bonn Airport (EDDK)

Arrival

Time 2026-05-06 20:18
Airport Innsbruck Airport (LOWI)
Time Latitude Longitude Altitude Speed Heading
2026-05-06 18:44 50.87932 7.12304 230 ft 0 kts 174°
2026-05-06 18:57 50.87943 7.12302 232 ft 4 kts 174°
2026-05-06 18:57 50.87970 7.12299 234 ft 4 kts 181°
2026-05-06 18:58 50.87995 7.12307 233 ft 3 kts 214°
2026-05-06 18:58 50.88013 7.12327 232 ft 4 kts 212°
2026-05-06 18:58 50.88033 7.12346 231 ft 4 kts 204°
2026-05-06 18:58 50.88059 7.12359 232 ft 4 kts 186°
2026-05-06 18:59 50.88082 7.12355 232 ft 4 kts 135°
2026-05-06 18:59 50.88085 7.12349 232 ft 0 kts 126°
2026-05-06 19:01 50.88085 7.12350 230 ft 1 kts 126°
2026-05-06 19:02 50.88048 7.12424 230 ft 17 kts 129°
2026-05-06 19:02 50.87962 7.12554 231 ft 16 kts 137°
2026-05-06 19:02 50.87867 7.12623 232 ft 15 kts 164°
2026-05-06 19:02 50.87783 7.12695 232 ft 13 kts 147°
2026-05-06 19:03 50.87716 7.12782 231 ft 12 kts 138°
2026-05-06 19:03 50.87656 7.12868 231 ft 11 kts 137°
2026-05-06 19:03 50.87571 7.12985 230 ft 22 kts 137°
2026-05-06 19:03 50.87458 7.13150 233 ft 22 kts 137°
2026-05-06 19:04 50.87344 7.13317 234 ft 22 kts 138°
2026-05-06 19:04 50.87253 7.13448 236 ft 14 kts 136°
2026-05-06 19:04 50.87194 7.13534 238 ft 10 kts 139°
2026-05-06 19:04 50.87133 7.13621 240 ft 12 kts 137°
2026-05-06 19:05 50.87072 7.13711 242 ft 12 kts 136°
2026-05-06 19:05 50.87009 7.13804 243 ft 29 kts 138°
2026-05-06 19:05 50.86850 7.14030 246 ft 26 kts 139°
2026-05-06 19:05 50.86788 7.14117 250 ft 8 kts 148°
2026-05-06 19:06 50.86722 7.14165 253 ft 0 kts 140°
2026-05-06 19:07 50.86712 7.14177 254 ft 8 kts 144°
2026-05-06 19:07 50.86689 7.14205 255 ft 5 kts 140°
2026-05-06 19:07 50.86641 7.14274 258 ft 7 kts 137°
2026-05-06 19:07 50.86585 7.14357 258 ft 12 kts 137°
2026-05-06 19:08 50.86526 7.14445 258 ft 11 kts 137°
2026-05-06 19:08 50.86472 7.14520 260 ft 10 kts 139°
2026-05-06 19:08 50.86379 7.14654 264 ft 26 kts 138°
2026-05-06 19:08 50.86257 7.14830 269 ft 20 kts 138°
2026-05-06 19:09 50.86161 7.14973 271 ft 20 kts 137°
2026-05-06 19:09 50.86047 7.15132 275 ft 21 kts 139°
2026-05-06 19:09 50.85945 7.15285 280 ft 19 kts 137°
2026-05-06 19:09 50.85857 7.15409 283 ft 15 kts 138°
2026-05-06 19:10 50.85744 7.15574 294 ft 28 kts 137°
2026-05-06 19:10 50.85601 7.15778 297 ft 26 kts 140°
2026-05-06 19:10 50.85463 7.15973 301 ft 26 kts 135°
2026-05-06 19:10 50.85354 7.16156 304 ft 20 kts 120°
2026-05-06 19:11 50.85339 7.16307 309 ft 2 kts 75°
2026-05-06 19:12 50.85339 7.16308 309 ft 0 kts 75°
2026-05-06 19:12 50.85345 7.16343 311 ft 6 kts 75°
2026-05-06 19:13 50.85359 7.16400 310 ft 6 kts 62°
2026-05-06 19:13 50.85377 7.16439 311 ft 2 kts 49°
2026-05-06 19:13 50.85379 7.16442 311 ft 0 kts 48°
2026-05-06 19:13 50.85380 7.16443 311 ft 2 kts 48°
2026-05-06 19:14 50.85396 7.16466 312 ft 2 kts 39°
2026-05-06 19:14 50.85405 7.16476 313 ft 0 kts 35°
2026-05-06 19:14 50.85407 7.16478 313 ft 1 kts 32°
2026-05-06 19:14 50.85410 7.16481 313 ft 0 kts 30°
2026-05-06 19:15 50.85415 7.16485 313 ft 0 kts 28°
2026-05-06 19:17 50.85432 7.16498 314 ft 8 kts 24°
2026-05-06 19:17 50.85490 7.16517 314 ft 9 kts
2026-05-06 19:17 50.85571 7.16489 309 ft 16 kts 336°
2026-05-06 19:17 50.85645 7.16387 309 ft 4 kts 315°
2026-05-06 19:18 50.85646 7.16386 309 ft 0 kts 316°
2026-05-06 19:19 50.85646 7.16385 309 ft 3 kts 316°
2026-05-06 19:19 50.85849 7.16091 301 ft 80 kts 318°
2026-05-06 19:19 50.86435 7.15246 267 ft 145 kts 317°
2026-05-06 19:20 50.87220 7.14114 889 ft 149 kts 317°
2026-05-06 19:20 50.87988 7.13006 1752 ft 153 kts 319°
2026-05-06 19:20 50.88827 7.11805 2254 ft 170 kts 320°
2026-05-06 19:20 50.89773 7.10553 2784 ft 187 kts 327°
2026-05-06 19:21 50.91014 7.09669 3327 ft 205 kts 355°
2026-05-06 19:21 50.92390 7.10270 4169 ft 213 kts 31°
2026-05-06 19:21 50.93544 7.11823 4799 ft 224 kts 53°
2026-05-06 19:21 50.94116 7.14153 4971 ft 242 kts 77°
2026-05-06 19:22 50.94453 7.16933 5005 ft 264 kts 73°
2026-05-06 19:22 50.95088 7.19680 5005 ft 266 kts 64°
2026-05-06 19:22 50.95908 7.22314 5023 ft 268 kts 60°
2026-05-06 19:22 50.96809 7.24953 5808 ft 272 kts 59°
2026-05-06 19:23 50.97713 7.27588 6924 ft 272 kts 59°
2026-05-06 19:23 50.98608 7.30242 7995 ft 274 kts 59°
2026-05-06 19:23 50.99493 7.32930 9041 ft 276 kts 60°
2026-05-06 19:23 51.00370 7.35651 10047 ft 279 kts 60°
2026-05-06 19:24 51.01131 7.38624 10509 ft 305 kts 72°
2026-05-06 19:24 51.01483 7.42085 10848 ft 332 kts 85°
2026-05-06 19:24 51.01308 7.45852 11370 ft 350 kts 99°
2026-05-06 19:24 51.00630 7.49620 12121 ft 358 kts 106°
2026-05-06 19:25 50.99876 7.53410 12936 ft 363 kts 106°
2026-05-06 19:25 50.99119 7.57271 13725 ft 368 kts 107°
2026-05-06 19:25 50.98355 7.61191 14390 ft 375 kts 108°
2026-05-06 19:25 50.97581 7.65151 15082 ft 380 kts 108°
2026-05-06 19:26 50.96799 7.69143 15790 ft 384 kts 108°
2026-05-06 19:26 50.95997 7.73214 16492 ft 388 kts 108°
2026-05-06 19:26 50.95185 7.77322 17178 ft 392 kts 108°
2026-05-06 19:26 50.94260 7.81414 17865 ft 396 kts 115°
2026-05-06 19:27 50.92919 7.85221 18470 ft 399 kts 124°
2026-05-06 19:27 50.91367 7.88906 19059 ft 402 kts 125°
2026-05-06 19:27 50.89813 7.92604 19658 ft 405 kts 125°
2026-05-06 19:27 50.88250 7.96335 20260 ft 408 kts 124°
2026-05-06 19:28 50.86675 8.00098 20854 ft 411 kts 124°
2026-05-06 19:28 50.85072 8.03846 21408 ft 413 kts 129°
2026-05-06 19:28 50.83163 8.07257 21977 ft 413 kts 139°
2026-05-06 19:28 50.80925 8.10117 22473 ft 416 kts 148°
2026-05-06 19:29 50.78461 8.12637 22604 ft 428 kts 149°
2026-05-06 19:29 50.75917 8.15185 22756 ft 439 kts 150°
2026-05-06 19:29 50.73341 8.17753 22887 ft 449 kts 149°
2026-05-06 19:29 50.70674 8.20413 23034 ft 458 kts 149°
2026-05-06 19:30 50.67959 8.23128 23171 ft 465 kts 149°
2026-05-06 19:30 50.65210 8.25883 23361 ft 471 kts 149°
2026-05-06 19:30 50.62435 8.28670 23638 ft 474 kts 149°
2026-05-06 19:30 50.59653 8.31468 23934 ft 476 kts 149°
2026-05-06 19:31 50.56848 8.34283 24240 ft 477 kts 149°
2026-05-06 19:31 50.54041 8.37091 24559 ft 478 kts 149°
2026-05-06 19:31 50.47299 8.43781 25297 ft 481 kts 149°
2026-05-06 19:32 50.44465 8.46586 25622 ft 481 kts 149°
2026-05-06 19:32 50.41646 8.49371 26235 ft 474 kts 149°
2026-05-06 19:32 50.38884 8.52105 26954 ft 467 kts 149°
2026-05-06 19:32 50.36123 8.54755 27523 ft 462 kts 151°
2026-05-06 19:33 50.33333 8.57226 28090 ft 459 kts 153°
2026-05-06 19:33 50.30523 8.59563 28666 ft 455 kts 153°
2026-05-06 19:33 50.27721 8.61817 29240 ft 451 kts 154°
2026-05-06 19:33 50.24965 8.64021 29771 ft 449 kts 154°
2026-05-06 19:34 50.22200 8.66259 30220 ft 447 kts 153°
2026-05-06 19:34 50.19441 8.68523 30555 ft 447 kts 153°
2026-05-06 19:34 50.16699 8.70801 30941 ft 446 kts 153°
2026-05-06 19:34 50.13966 8.73089 31326 ft 446 kts 153°
2026-05-06 19:35 50.11236 8.75377 31712 ft 445 kts 153°
2026-05-06 19:35 50.08438 8.77400 32079 ft 442 kts 162°
2026-05-06 19:35 50.05479 8.78654 32480 ft 439 kts 171°
2026-05-06 19:35 50.02449 8.79094 32878 ft 437 kts 181°
2026-05-06 19:36 49.99421 8.78733 33274 ft 434 kts 188°
2026-05-06 19:36 49.94497 8.77674 33587 ft 432 kts 188°
2026-05-06 19:36 49.82612 8.75235 34777 ft 433 kts 188°
2026-05-06 19:36 49.72507 8.73172 34911 ft 454 kts 188°
2026-05-06 19:37 49.69417 8.72536 35229 ft 443 kts 188°
2026-05-06 19:37 49.61080 8.70846 35217 ft 429 kts 188°
2026-05-06 19:37 49.49022 8.68611 33715 ft 447 kts 180°
2026-05-06 19:37 49.41113 8.71568 32150 ft 439 kts 156°
2026-05-06 19:38 49.26034 8.81449 33113 ft 438 kts 158°
2026-05-06 19:38 49.14899 8.88780 34693 ft 434 kts 159°
2026-05-06 19:38 49.03769 8.96044 34906 ft 432 kts 159°
2026-05-06 19:38 48.93829 9.02487 34888 ft 435 kts 160°
2026-05-06 19:39 48.88248 9.06095 34866 ft 435 kts 160°
2026-05-06 19:39 48.82665 9.09697 34866 ft 436 kts 160°
2026-05-06 19:40 48.77081 9.13305 34865 ft 436 kts 160°
2026-05-06 19:40 48.71500 9.16903 34870 ft 436 kts 160°
2026-05-06 19:41 48.65936 9.20477 34864 ft 434 kts 160°
2026-05-06 19:41 48.60366 9.24045 34862 ft 434 kts 160°
2026-05-06 19:42 48.54802 9.27594 34872 ft 434 kts 160°
2026-05-06 19:42 48.49243 9.31139 34877 ft 434 kts 160°
2026-05-06 19:43 48.43712 9.34649 34887 ft 434 kts 160°
2026-05-06 19:43 48.38150 9.38176 34890 ft 434 kts 160°
2026-05-06 19:44 48.32583 9.41703 34896 ft 434 kts 160°
2026-05-06 19:44 48.20112 9.48521 34937 ft 431 kts 167°
2026-05-06 19:45 48.11426 9.52276 34900 ft 431 kts 167°
2026-05-06 19:45 48.05666 9.54764 34903 ft 431 kts 167°
2026-05-06 19:46 48.00139 9.58362 34904 ft 439 kts 152°
2026-05-06 19:46 47.95147 9.63721 34886 ft 443 kts 148°
2026-05-06 19:47 47.92650 9.66432 34441 ft 443 kts 148°
2026-05-06 19:47 47.90159 9.69125 34202 ft 442 kts 148°
2026-05-06 19:47 47.87674 9.71804 33974 ft 441 kts 149°
2026-05-06 19:47 47.85183 9.74482 33711 ft 441 kts 149°
2026-05-06 19:48 47.82689 9.77158 33402 ft 442 kts 149°
2026-05-06 19:48 47.80187 9.79836 33127 ft 443 kts 149°
2026-05-06 19:48 47.77680 9.82516 32869 ft 444 kts 150°
2026-05-06 19:48 47.75169 9.85199 32594 ft 445 kts 150°
2026-05-06 19:49 47.72660 9.87881 32244 ft 446 kts 150°
2026-05-06 19:49 47.70986 9.89670 31506 ft 448 kts 150°
2026-05-06 19:49 47.68494 9.92411 30561 ft 446 kts 146°
2026-05-06 19:49 47.66447 9.95923 30173 ft 457 kts 128°
2026-05-06 19:50 47.65198 10.00176 29978 ft 446 kts 111°
2026-05-06 19:50 47.64891 10.04685 29901 ft 436 kts 91°
2026-05-06 19:50 47.65933 10.13546 29906 ft 436 kts 84°
2026-05-06 19:51 47.67094 10.22395 29919 ft 437 kts 84°
2026-05-06 19:51 47.68246 10.31233 29686 ft 434 kts 84°
2026-05-06 19:52 47.68797 10.35554 29182 ft 428 kts 87°
2026-05-06 19:52 47.68886 10.39868 28665 ft 409 kts 103°
2026-05-06 19:52 47.68251 10.43849 27930 ft 391 kts 120°
2026-05-06 19:52 47.66984 10.47297 27470 ft 373 kts 134°
2026-05-06 19:53 47.65266 10.50091 26995 ft 359 kts 147°
2026-05-06 19:53 47.63245 10.52128 26518 ft 346 kts 159°
2026-05-06 19:53 47.61033 10.53400 25977 ft 337 kts 171°
2026-05-06 19:53 47.58741 10.53905 25441 ft 331 kts 181°
2026-05-06 19:54 47.56442 10.54049 24913 ft 331 kts 180°
2026-05-06 19:54 47.54151 10.54280 24432 ft 330 kts 178°
2026-05-06 19:54 47.51864 10.54552 23979 ft 328 kts 178°
2026-05-06 19:54 47.49592 10.54830 23536 ft 327 kts 178°
2026-05-06 19:55 47.47334 10.55095 22987 ft 325 kts 178°
2026-05-06 19:55 47.45082 10.55348 22492 ft 323 kts 178°
2026-05-06 19:55 47.42844 10.55589 22005 ft 322 kts 178°
2026-05-06 19:55 47.40618 10.55823 21577 ft 319 kts 178°
2026-05-06 19:56 47.38410 10.56051 21116 ft 317 kts 178°
2026-05-06 19:56 47.36213 10.56280 20643 ft 316 kts 178°
2026-05-06 19:56 47.34025 10.56512 20221 ft 314 kts 178°
2026-05-06 19:56 47.31853 10.56740 19763 ft 311 kts 178°
2026-05-06 19:57 47.29703 10.56962 19006 ft 309 kts 178°
2026-05-06 19:57 47.27572 10.57338 18227 ft 310 kts 166°
2026-05-06 19:57 47.25648 10.58786 17324 ft 315 kts 143°
2026-05-06 19:57 47.24241 10.61283 16432 ft 324 kts 121°
2026-05-06 19:58 47.23588 10.64485 15515 ft 334 kts 97°
2026-05-06 19:58 47.23875 10.67872 15009 ft 333 kts 72°
2026-05-06 19:58 47.25020 10.70798 14869 ft 333 kts 49°
2026-05-06 19:58 47.26847 10.72838 14868 ft 333 kts 23°
2026-05-06 19:59 47.29075 10.73648 14876 ft 331 kts 358°
2026-05-06 19:59 47.31300 10.73087 14876 ft 322 kts 334°
2026-05-06 19:59 47.33320 10.71692 14868 ft 320 kts 329°
2026-05-06 19:59 47.35302 10.70175 14871 ft 321 kts 328°
2026-05-06 20:00 47.37268 10.68610 14876 ft 321 kts 327°
2026-05-06 20:00 47.39230 10.67031 14910 ft 321 kts 327°
2026-05-06 20:00 47.41168 10.65475 14907 ft 321 kts 326°
2026-05-06 20:00 47.42872 10.63438 14909 ft 312 kts 304°
2026-05-06 20:01 47.43891 10.60685 14911 ft 303 kts 282°
2026-05-06 20:01 47.44129 10.57649 14906 ft 295 kts 261°
2026-05-06 20:01 47.43600 10.54768 14906 ft 290 kts 241°
2026-05-06 20:01 47.42411 10.52393 14917 ft 288 kts 221°
2026-05-06 20:02 47.40728 10.50819 14913 ft 288 kts 201°
2026-05-06 20:02 47.38766 10.50246 14917 ft 291 kts 182°
2026-05-06 20:02 47.36761 10.50765 14921 ft 297 kts 162°
2026-05-06 20:02 47.34870 10.52022 14903 ft 299 kts 157°
2026-05-06 20:03 47.33015 10.53428 14905 ft 300 kts 156°
2026-05-06 20:03 47.31176 10.54892 14893 ft 301 kts 155°
2026-05-06 20:03 47.29341 10.56369 14899 ft 301 kts 155°
2026-05-06 20:03 47.27578 10.58012 14897 ft 305 kts 142°
2026-05-06 20:04 47.26288 10.60530 14896 ft 314 kts 118°
2026-05-06 20:04 47.25780 10.63660 14899 ft 323 kts 95°
2026-05-06 20:04 47.26157 10.67122 14886 ft 361 kts 71°
2026-05-06 20:04 47.27470 10.70450 14905 ft 393 kts 50°
2026-05-06 20:05 47.29612 10.73143 14913 ft 420 kts 30°
2026-05-06 20:05 47.32378 10.74806 14947 ft 440 kts 12°
2026-05-06 20:05 47.35405 10.75446 14928 ft 430 kts
2026-05-06 20:05 47.38260 10.75902 14636 ft 397 kts
2026-05-06 20:06 47.40906 10.76109 14458 ft 364 kts 351°
2026-05-06 20:06 47.43219 10.75172 14289 ft 330 kts 329°
2026-05-06 20:06 47.44955 10.73255 13773 ft 307 kts 305°
2026-05-06 20:06 47.45951 10.70588 13213 ft 291 kts 281°
2026-05-06 20:07 47.46143 10.67672 13065 ft 285 kts 260°
2026-05-06 20:07 47.45613 10.64883 13076 ft 282 kts 241°
2026-05-06 20:07 47.44440 10.62601 13077 ft 280 kts 220°
2026-05-06 20:07 47.42781 10.61128 13030 ft 281 kts 200°
2026-05-06 20:08 47.40868 10.60659 12824 ft 283 kts 180°
2026-05-06 20:08 47.38945 10.61298 12587 ft 288 kts 159°
2026-05-06 20:08 47.37288 10.62998 12345 ft 294 kts 137°
2026-05-06 20:08 47.36057 10.65445 12088 ft 297 kts 128°
2026-05-06 20:09 47.34916 10.67945 11802 ft 288 kts 128°
2026-05-06 20:09 47.33830 10.70338 11582 ft 273 kts 127°
2026-05-06 20:09 47.32807 10.72586 11359 ft 257 kts 128°
2026-05-06 20:09 47.31845 10.74690 11148 ft 241 kts 127°
2026-05-06 20:10 47.30940 10.76671 10958 ft 226 kts 128°
2026-05-06 20:10 47.30184 10.78637 10766 ft 217 kts 117°
2026-05-06 20:10 47.29744 10.80729 10613 ft 209 kts 105°
2026-05-06 20:10 47.29605 10.82859 10269 ft 209 kts 92°
2026-05-06 20:11 47.29685 10.84980 9938 ft 204 kts 89°
2026-05-06 20:11 47.29766 10.87039 9641 ft 199 kts 90°
2026-05-06 20:11 47.29841 10.89037 9331 ft 192 kts 89°
2026-05-06 20:11 47.29915 10.90989 9075 ft 191 kts 91°
2026-05-06 20:12 47.29989 10.92937 8800 ft 190 kts 90°
2026-05-06 20:12 47.30061 10.94876 8526 ft 189 kts 91°
2026-05-06 20:12 47.30132 10.96802 8257 ft 189 kts 90°
2026-05-06 20:12 47.30204 10.98722 7952 ft 191 kts 90°
2026-05-06 20:13 47.30277 11.00672 7612 ft 189 kts 88°
2026-05-06 20:13 47.30349 11.02588 7302 ft 184 kts 89°
2026-05-06 20:13 47.30420 11.04456 7000 ft 181 kts 88°
2026-05-06 20:13 47.30472 11.06299 6720 ft 178 kts 90°
2026-05-06 20:14 47.30371 11.08070 6538 ft 173 kts 102°
2026-05-06 20:14 47.29994 11.09773 6297 ft 176 kts 113°
2026-05-06 20:14 47.29496 11.11422 6034 ft 176 kts 114°
2026-05-06 20:14 47.29005 11.13062 5766 ft 174 kts 112°
2026-05-06 20:15 47.28549 11.14693 5484 ft 169 kts 112°
2026-05-06 20:15 47.28157 11.16294 5190 ft 164 kts 108°
2026-05-06 20:15 47.27805 11.17841 4896 ft 155 kts 114°
2026-05-06 20:15 47.27375 11.19219 4720 ft 140 kts 119°
2026-05-06 20:16 47.26872 11.20415 4392 ft 136 kts 121°
2026-05-06 20:16 47.26387 11.21625 4012 ft 139 kts 118°
2026-05-06 20:16 47.25983 11.22930 3698 ft 140 kts 108°
2026-05-06 20:16 47.25700 11.24268 3392 ft 141 kts 104°
2026-05-06 20:17 47.25514 11.25721 3063 ft 141 kts 96°
2026-05-06 20:17 47.25458 11.27152 2791 ft 138 kts 89°
2026-05-06 20:17 47.25490 11.28555 2559 ft 136 kts 88°
2026-05-06 20:17 47.25590 11.29937 2423 ft 136 kts 84°
2026-05-06 20:18 47.25697 11.31308 2208 ft 134 kts 84°
2026-05-06 20:18 47.25841 11.32654 2014 ft 133 kts 83°
2026-05-06 20:18 47.25987 11.33977 1920 ft 129 kts 83°
2026-05-06 20:18 47.26077 11.34935 1905 ft 38 kts 79°
2026-05-06 20:19 47.26107 11.35211 1907 ft 16 kts 103°
2026-05-06 20:19 47.26020 11.35274 1898 ft 8 kts 172°
2026-05-06 20:19 47.25953 11.35287 1902 ft 11 kts 170°
2026-05-06 20:19 47.25903 11.35293 1899 ft 5 kts 187°
2026-05-06 20:20 47.25892 11.35284 1894 ft 0 kts 214°
2026-05-06 20:20 47.25890 11.35282 1894 ft 1 kts 212°
2026-05-06 20:20 47.25882 11.35277 1896 ft 1 kts 203°
2026-05-06 20:21 47.25870 11.35280 1903 ft 2 kts 158°
2026-05-06 20:21 47.25855 11.35285 1901 ft 1 kts 167°
2026-05-06 20:21 47.25849 11.35287 1902 ft 0 kts 169°